Belmar-Farmingdale, NJ

9:48 PM EST on December 08, 2019 (GMT -0500)
Allaire

Weather History for KBLM - October, 2019

Change the Weather History Date:

Wednesday, October 9, 2019

  Actual Average Record
Temperature  
Mean Temperature 57 °F -  
Max Temperature 61 °F 63 °F 84 °F (2011)
Min Temperature 53 °F 48 °F 30 °F (2001)
Degree Days  
Heating Degree Days 8    
Growing Degree Days 7 (Base 50)    
Moisture  
Dew Point 52 °F    
Average Humidity 88    
Maximum Humidity 100    
Minimum Humidity 60    
Precipitation  
Precipitation 0.39 in - - ()
Sea Level Pressure  
Sea Level Pressure 30.23 in    
Wind  
Wind Speed 11 mph ()    
Max Wind Speed 16 mph    
Max Gust Speed 24 mph    
Visibility 6.5 miles    
Events Rain    
Averages and records for this station are not official NWS values.
T = Trace of Precipitation, MM = Missing Value Source: Averaged Metar Reports

Daily Weather History Graph

Daily Weather History Graph

Search for Another Location

Airport or City:

Astronomy

Oct. 09, 2019 Rise Set
Actual Time 7:00 AM EDT 6:26 PM EDT
Civil Twilight 6:33 AM EDT 6:53 PM EDT
Nautical Twilight 6:01 AM EDT 7:24 PM EDT
Astronomical Twilight 5:30 AM EDT 7:56 PM EDT
Moon 4:57 PM EDT 2:44 AM EDT
Length of Visible Light 12h 20m
Length of Day
11h 25m
Waxing Gibbous, 85% of the Moon is Illuminated
Oct 9
Waxing Gibbous
Oct 13
Full
Oct 21
Last Quarter
Oct 27
New
Nov 4
First Quarter

Hourly Weather History & Observations

Time (EDT) Temp. Dew Point Humidity Pressure Visibility Wind Dir Wind Speed Gust Speed Precip Events Conditions
12:56 AM 60.1 °F 48.9 °F 67% 30.19 in 10.0 mi NNE 12.7 mph - N/A   Clear
1:56 AM 60.1 °F 48.0 °F 64% 30.19 in 10.0 mi NNE 13.8 mph 18.4 mph N/A   Clear
2:56 AM 61.0 °F 46.9 °F 60% 30.18 in 10.0 mi NNE 13.8 mph 21.9 mph N/A   Overcast
3:56 AM 59.0 °F 48.9 °F 69% 30.19 in 10.0 mi NNE 11.5 mph 18.4 mph N/A   Clear
4:56 AM 57.9 °F 48.9 °F 72% 30.19 in 10.0 mi NNE 10.4 mph 17.3 mph N/A   Clear
5:56 AM 57.9 °F 48.9 °F 72% 30.21 in 10.0 mi NNE 9.2 mph 20.7 mph N/A   Clear
6:15 AM 59.0 °F 48.2 °F 67% 30.20 in 10.0 mi NNE 13.8 mph 23.0 mph N/A   Mostly Cloudy
6:41 AM 59.0 °F 48.2 °F 67% 30.20 in 10.0 mi NNE 15.0 mph - N/A   Mostly Cloudy
6:56 AM 59.0 °F 48.9 °F 69% 30.21 in 10.0 mi NE 15.0 mph 24.2 mph N/A   Mostly Cloudy
7:23 AM 59.0 °F 50.0 °F 72% 30.22 in 10.0 mi NNE 16.1 mph 20.7 mph N/A   Overcast
7:56 AM 57.9 °F 52.0 °F 81% 30.23 in 8.0 mi ENE 9.2 mph - 0.00 in Rain Light Rain
8:21 AM 55.4 °F 53.6 °F 94% 30.24 in 2.5 mi NE 11.5 mph - 0.00 in Rain Light Rain
8:29 AM 55.4 °F 53.6 °F 94% 30.24 in 6.0 mi NE 9.2 mph - 0.00 in Rain Light Rain
8:38 AM 55.4 °F 53.6 °F 94% 30.24 in 6.0 mi NE 13.8 mph - 0.01 in Rain Light Rain
8:49 AM 55.4 °F 53.6 °F 94% 30.25 in 5.0 mi North 8.1 mph - 0.01 in Rain Light Rain
8:56 AM 55.0 °F 54.0 °F 96% 30.25 in 4.0 mi NNE 10.4 mph - 0.01 in Rain Light Rain
9:10 AM 55.4 °F 53.6 °F 94% 30.26 in 2.0 mi NNE 8.1 mph - 0.02 in Rain Light Rain
9:29 AM 55.4 °F 53.6 °F 94% 30.26 in 6.0 mi NE 11.5 mph 20.7 mph 0.06 in Rain Rain
9:56 AM 55.0 °F 53.1 °F 93% 30.27 in 9.0 mi NE 15.0 mph 23.0 mph 0.09 in Rain Light Rain
10:56 AM 55.0 °F 53.1 °F 93% 30.27 in 10.0 mi North 11.5 mph - 0.00 in   Overcast
11:56 AM 54.0 °F 52.0 °F 93% 30.27 in 5.0 mi North 15.0 mph - 0.00 in   Overcast
12:54 PM 53.6 °F 51.8 °F 94% 30.26 in 2.0 mi North 12.7 mph 18.4 mph 0.03 in Rain Light Rain
12:56 PM 53.1 °F 52.0 °F 96% 30.26 in 2.0 mi North 15.0 mph - 0.03 in Rain Light Rain
1:05 PM 53.6 °F 51.8 °F 94% 30.25 in 1.8 mi North 11.5 mph 20.7 mph 0.02 in Rain Light Rain
1:27 PM 53.6 °F 51.8 °F 94% 30.25 in 2.5 mi North 11.5 mph 19.6 mph 0.07 in Rain Light Rain
1:56 PM 53.1 °F 52.0 °F 96% 30.24 in 3.0 mi North 10.4 mph - 0.13 in Rain Light Rain
2:04 PM 53.6 °F 51.8 °F 94% 30.24 in 4.0 mi North 12.7 mph - 0.01 in Rain Light Rain
2:48 PM 53.6 °F 53.6 °F 100% 30.23 in 3.0 mi North 9.2 mph - 0.06 in Rain Light Rain
2:56 PM 54.0 °F 53.1 °F 97% 30.23 in 4.0 mi North 11.5 mph - 0.06 in Rain Light Rain
3:06 PM 53.6 °F 53.6 °F 100% 30.23 in 3.0 mi North 11.5 mph - 0.01 in Rain Light Rain
3:51 PM 53.6 °F 53.6 °F 100% 30.22 in 4.0 mi North 12.7 mph - 0.03 in Rain Light Rain
3:56 PM 54.0 °F 53.1 °F 97% 30.22 in 3.0 mi North 12.7 mph - 0.03 in Rain Light Rain
4:20 PM 53.6 °F 53.6 °F 100% 30.22 in 2.5 mi North 11.5 mph - 0.02 in Rain Light Rain
4:30 PM 53.6 °F 53.6 °F 100% 30.22 in 3.0 mi North 11.5 mph 20.7 mph 0.02 in Rain Light Rain
4:56 PM 54.0 °F 53.1 °F 97% 30.22 in 2.5 mi North 12.7 mph - 0.03 in Rain Light Rain
5:29 PM 53.6 °F 53.6 °F 100% 30.22 in 4.0 mi North 12.7 mph 19.6 mph 0.01 in Rain Light Rain
5:56 PM 54.0 °F 52.0 °F 93% 30.23 in 6.0 mi North 9.2 mph - 0.01 in Rain Light Rain
6:06 PM 53.6 °F 51.8 °F 94% 30.23 in 10.0 mi North 8.1 mph - 0.00 in   Overcast
6:36 PM 53.6 °F 51.8 °F 94% 30.23 in 9.0 mi North 9.2 mph - 0.00 in   Overcast
6:56 PM 54.0 °F 51.1 °F 90% 30.24 in 10.0 mi North 8.1 mph - 0.00 in   Overcast
7:56 PM 54.0 °F 51.1 °F 90% 30.24 in 10.0 mi North 9.2 mph - 0.00 in   Overcast
8:56 PM 54.0 °F 50.0 °F 86% 30.25 in 10.0 mi North 10.4 mph - N/A   Overcast
9:56 PM 55.0 °F 48.9 °F 80% 30.25 in 10.0 mi NNE 9.2 mph 17.3 mph N/A   Overcast
10:56 PM 55.0 °F 48.9 °F 80% 30.25 in 10.0 mi NNE 11.5 mph - N/A   Overcast
11:56 PM 54.0 °F 48.9 °F 83% 30.24 in 10.0 mi North 11.5 mph 18.4 mph N/A   Overcast